Change the Weather History Date:

Tuesday, October 30, 2012

  Actual Average (KMTC) Record (KMTC)
Temperature  
Mean Temperature 40 °F -  
Max Temperature 44 °F 55 °F 73 °F (1950)
Min Temperature 37 °F 37 °F 23 °F (1966)
Degree Days  
Heating Degree Days 24    
Moisture  
Dew Point 39 °F    
Average Humidity 92    
Maximum Humidity 100    
Minimum Humidity 87    
Precipitation  
Precipitation 0.00 in - - ()
Sea Level Pressure  
Sea Level Pressure 29.43 in    
Wind  
Wind Speed 18 mph (NNW)    
Max Wind Speed 24 mph    
Max Gust Speed 40 mph    
Visibility 3 miles    
Events Rain , Snow    
Averages and records for this station are not official NWS values.
T = Trace of Precipitation, MM = Missing Value Source: NWS Daily Summary

Daily Weather History Graph

Daily Weather History Graph

Search for Another Location

Airport or City:

Trip Planner

Search our weather history database for the weather conditions in past years. The results will help you decide how hot, cold, wet, or windy it might be!

Date:

Astronomy

Oct. 30, 2012 Rise Set
Actual Time 8:02 AM EDT 6:24 PM EDT
Civil Twilight 7:33 AM EDT 6:53 PM EDT
Nautical Twilight 6:59 AM EDT 7:27 PM EDT
Astronomical Twilight 6:26 AM EDT 7:59 PM EDT
Moon 6:51 PM EDT (10/30) 8:49 AM EDT (10/30)
Length of Visible Light 11h 20m
Length of Day
10h 21m
Full, 99% of the Moon is Illuminated
Oct 30
Full
Nov 6
Last Quarter
Nov 13
New
Nov 20
First Quarter
Nov 28
Full

Hourly Weather History & Observations

Time (EDT) Temp. Windchill Dew Point Humidity Pressure Visibility Wind Dir Wind Speed Gust Speed Precip Events Conditions
12:16 AM 37.4 °F 28.2 °F 35.6 °F 93% 29.61 in 3.0 mi NNW 16.1 mph 38.0 mph N/A Rain Rain
12:36 AM 37.4 °F 27.8 °F 35.6 °F 93% 29.60 in 3.0 mi North 17.3 mph 28.8 mph N/A Rain Light Rain
12:56 AM 37.4 °F 26.4 °F 35.6 °F 93% 29.57 in 2.5 mi NNW 23.0 mph 34.5 mph N/A   Overcast
1:16 AM 37.4 °F 27.8 °F 35.6 °F 93% 29.56 in 2.5 mi North 17.3 mph 27.6 mph N/A Snow Light Snow
1:36 AM 37.4 °F 26.6 °F 35.6 °F 93% 29.55 in 3.0 mi North 21.9 mph 40.3 mph N/A Rain Light Rain
1:56 AM 37.4 °F 26.6 °F 35.6 °F 93% 29.53 in 2.5 mi North 21.9 mph 31.1 mph N/A Rain Rain
2:16 AM 37.4 °F 27.8 °F 35.6 °F 93% 29.52 in 4.0 mi NNW 17.3 mph 36.8 mph N/A Rain Rain
2:36 AM 39.2 °F 29.3 °F 35.6 °F 87% 29.50 in 4.0 mi North 20.7 mph 33.4 mph N/A Rain Rain
2:56 AM 39.2 °F 29.6 °F 35.6 °F 87% 29.49 in 4.0 mi NNW 19.6 mph 32.2 mph N/A Rain Rain
3:16 AM 39.2 °F 29.3 °F 35.6 °F 87% 29.46 in 5.0 mi North 20.7 mph 32.2 mph N/A Rain Rain
3:36 AM 39.2 °F 28.5 °F 35.6 °F 87% 29.45 in 5.0 mi North 24.2 mph 36.8 mph N/A Rain Rain
3:56 AM 39.2 °F 30.8 °F 35.6 °F 87% 29.45 in 7.0 mi North 15.0 mph 32.2 mph N/A Rain Rain
4:16 AM 39.2 °F 29.3 °F 37.4 °F 93% 29.45 in 3.0 mi North 20.7 mph 31.1 mph N/A Rain Rain
4:36 AM 39.2 °F 30.2 °F 37.4 °F 93% 29.45 in 2.5 mi North 17.3 mph 31.1 mph N/A Rain Rain
4:56 AM 39.2 °F 29.6 °F 37.4 °F 93% 29.44 in 2.5 mi North 19.6 mph 29.9 mph N/A Rain Rain
5:16 AM 39.2 °F 28.7 °F 35.6 °F 87% 29.44 in 2.5 mi North 23.0 mph 34.5 mph N/A Rain Rain
5:36 AM 39.2 °F 29.3 °F 37.4 °F 93% 29.43 in 3.0 mi North 20.7 mph 33.4 mph N/A Rain Rain
5:56 AM 39.2 °F 29.8 °F 37.4 °F 93% 29.43 in 3.0 mi North 18.4 mph 32.2 mph N/A Rain Rain
6:16 AM 39.2 °F 29.3 °F 37.4 °F 93% 29.42 in 4.0 mi NNW 20.7 mph 34.5 mph N/A Rain Light Rain
6:36 AM 39.2 °F 28.7 °F 37.4 °F 93% 29.42 in 4.0 mi North 23.0 mph 32.2 mph N/A Rain Rain
6:56 AM 39.2 °F 29.0 °F 37.4 °F 93% 29.41 in 5.0 mi NNW 21.9 mph 34.5 mph N/A Rain Light Rain
7:16 AM 39.2 °F 30.2 °F 37.4 °F 93% 29.41 in 2.5 mi North 17.3 mph 32.2 mph N/A Rain Rain
7:36 AM 39.2 °F 29.6 °F 37.4 °F 93% 29.41 in 3.0 mi North 19.6 mph 33.4 mph N/A Rain Rain
7:56 AM 39.2 °F 30.2 °F 37.4 °F 93% 29.41 in 2.5 mi North 17.3 mph 27.6 mph N/A Rain Light Rain
8:16 AM 41.0 °F 31.9 °F 39.2 °F 93% 29.41 in 2.5 mi North 19.6 mph 31.1 mph N/A Rain Rain
8:36 AM 41.0 °F 32.2 °F 39.2 °F 93% 29.41 in 2.5 mi North 18.4 mph 31.1 mph N/A   Heavy Drizzle
8:56 AM 41.0 °F 31.9 °F 39.2 °F 93% 29.41 in 2.5 mi North 19.6 mph 31.1 mph N/A Rain Light Rain
9:16 AM 41.0 °F 31.4 °F 39.2 °F 93% 29.41 in 2.5 mi North 21.9 mph 34.5 mph N/A Rain Light Rain
9:36 AM 41.0 °F 32.5 °F 39.2 °F 93% 29.41 in 2.0 mi North 17.3 mph 31.1 mph N/A Rain Rain
9:56 AM 41.0 °F 32.5 °F 39.2 °F 93% 29.41 in 2.5 mi North 17.3 mph 29.9 mph N/A Rain Light Rain
10:16 AM 41.0 °F 31.4 °F 41.0 °F 100% 29.40 in 2.5 mi North 21.9 mph 35.7 mph N/A Rain Light Rain
10:36 AM 42.8 °F 33.8 °F 39.2 °F 87% 29.40 in 2.5 mi North 21.9 mph 35.7 mph N/A Rain Heavy Rain
10:56 AM 42.8 °F 34.8 °F 41.0 °F 93% 29.40 in 2.5 mi North 17.3 mph 32.2 mph N/A Rain Light Rain
11:16 AM 42.8 °F 34.8 °F 41.0 °F 93% 29.40 in 2.0 mi North 17.3 mph 28.8 mph N/A   Heavy Drizzle
11:36 AM 42.8 °F 34.3 °F 41.0 °F 93% 29.39 in 3.0 mi North 19.6 mph 33.4 mph N/A   Drizzle
11:56 AM 42.8 °F 34.5 °F 41.0 °F 93% 29.40 in 2.5 mi North 18.4 mph 36.8 mph N/A Rain Light Rain
12:16 PM 42.8 °F 33.3 °F 41.0 °F 93% 29.40 in 2.0 mi North 24.2 mph 35.7 mph N/A Rain Light Rain
12:36 PM 42.8 °F 34.5 °F 41.0 °F 93% 29.39 in 3.0 mi North 18.4 mph 33.4 mph N/A Rain Rain
12:56 PM 42.8 °F 34.8 °F 41.0 °F 93% 29.39 in 2.0 mi North 17.3 mph 28.8 mph N/A   Drizzle
1:16 PM 42.8 °F 34.8 °F 41.0 °F 93% 29.39 in 2.5 mi North 17.3 mph 31.1 mph N/A Rain Light Rain
1:36 PM 42.8 °F 34.0 °F 41.0 °F 93% 29.39 in 5.0 mi North 20.7 mph 32.2 mph N/A   Drizzle
1:56 PM 42.8 °F 34.3 °F 41.0 °F 93% 29.39 in 5.0 mi North 19.6 mph 29.9 mph N/A   Drizzle
2:16 PM 44.6 °F 36.9 °F 41.0 °F 87% 29.38 in 2.5 mi North 18.4 mph 31.1 mph N/A Rain Heavy Rain
2:36 PM 44.6 °F 38.8 °F 42.8 °F 93% 29.38 in 3.0 mi North 11.5 mph 26.5 mph N/A Rain Rain
2:56 PM 44.6 °F 37.2 °F 42.8 °F 93% 29.38 in 2.0 mi North 17.3 mph 27.6 mph N/A   Drizzle
3:16 PM 44.6 °F 37.8 °F 42.8 °F 93% 29.38 in 1.8 mi North 15.0 mph 25.3 mph N/A Rain Rain
3:36 PM 44.6 °F 37.8 °F 42.8 °F 93% 29.39 in 2.5 mi North 15.0 mph 23.0 mph N/A Rain Light Rain
3:56 PM 42.8 °F 35.8 °F 41.0 °F 93% 29.39 in 2.5 mi North 13.8 mph 19.6 mph N/A Rain Rain
4:16 PM 42.8 °F 37.0 °F 41.0 °F 93% 29.40 in 3.0 mi NNW 10.4 mph 18.4 mph N/A Rain Light Rain
4:36 PM 42.8 °F 37.5 °F 41.0 °F 93% 29.40 in 3.0 mi North 9.2 mph 24.2 mph N/A Rain Light Rain
5:16 PM 42.8 °F 35.8 °F 41.0 °F 93% 29.40 in 3.0 mi North 13.8 mph 25.3 mph N/A Rain Light Rain
5:36 PM 42.8 °F 36.2 °F 41.0 °F 93% 29.41 in 5.0 mi North 12.7 mph 23.0 mph N/A Rain Light Rain
5:56 PM 42.8 °F 36.6 °F 41.0 °F 93% 29.41 in 2.5 mi NNW 11.5 mph 19.6 mph N/A   Drizzle
7:16 PM 42.8 °F 38.0 °F 41.0 °F 93% 29.43 in 4.0 mi NNW 8.1 mph - N/A Rain Light Rain
7:36 PM 42.8 °F 37.0 °F 41.0 °F 93% 29.43 in 4.0 mi NW 10.4 mph 17.3 mph N/A   Drizzle
8:16 PM 42.8 °F 37.5 °F 41.0 °F 93% 29.43 in 3.0 mi NNW 9.2 mph 16.1 mph N/A   Drizzle
8:36 PM 42.8 °F 37.5 °F 41.0 °F 93% 29.43 in 2.0 mi NNW 9.2 mph 19.6 mph N/A   Drizzle
8:56 PM 42.8 °F 36.6 °F 41.0 °F 93% 29.43 in 2.5 mi NNW 11.5 mph 16.1 mph N/A   Drizzle
9:16 PM 42.8 °F 37.0 °F 41.0 °F 93% 29.43 in 2.5 mi NNW 10.4 mph 18.4 mph N/A   Drizzle
9:36 PM 42.8 °F 36.2 °F 41.0 °F 93% 29.43 in 2.5 mi NNW 12.7 mph 18.4 mph N/A   Drizzle
9:56 PM 42.8 °F 36.2 °F 41.0 °F 93% 29.43 in 2.5 mi NNW 12.7 mph 17.3 mph N/A   Drizzle
10:16 PM 42.8 °F 37.0 °F 41.0 °F 93% 29.43 in 4.0 mi NNW 10.4 mph 20.7 mph N/A Rain Light Rain
10:56 PM 42.8 °F 37.0 °F 41.0 °F 93% 29.43 in 3.0 mi NNW 10.4 mph 17.3 mph N/A Rain Light Rain
11:16 PM 42.8 °F 36.6 °F 41.0 °F 93% 29.43 in 3.0 mi NW 11.5 mph 19.6 mph N/A Rain Light Rain
11:36 PM 42.8 °F 36.2 °F 41.0 °F 93% 29.42 in 3.0 mi NW 12.7 mph 20.7 mph N/A   Drizzle
11:56 PM 41.0 °F 34.3 °F 41.0 °F 100% 29.42 in 2.0 mi NNW 11.5 mph 19.6 mph N/A Rain Rain